Regional Weather Roundup
Issued by NWS Little Rock, AR

Home | Current Version | Previous Version | Graphics & Text | Print | Product List | Glossary On
Versions: 1 2 3 4 5 6 7 8 9 10 11 12 13 14 15 16 17 18 19 20 21 22 23 24 25 26 27 28 29 30 31 32 33 34 35 36 37 38 39 40 41 42 43 44 45 46 47 48 49 50
000
ASUS44 KLZK 290605
RWRLZK

WEATHER ROUNDUP FOR ARKANSAS
NATIONAL WEATHER SERVICE LITTLE ROCK AR
1200 AM CST THU JAN 29 2015

NOTE: "FAIR" INDICATES FEW OR NO CLOUDS BELOW 12,000 FEET WITH NO
SIGNIFICANT WEATHER AND/OR OBSTRUCTIONS TO VISIBILITY.

ARZ001-003-010-029-290700-
NORTHWEST ARKANSAS

CITY           SKY/WX    TMP DP  RH WIND       PRES   REMARKS
FAYETTEVILLE   MOCLDY    60  42  51 SW12      29.97R
6HR MIN TEMP:  58; 6HR MAX TEMP:  62;

FORT SMITH     MOCLDY    50  42  74 N6        29.97R
6HR MIN TEMP:  50; 6HR MAX TEMP:  61;

HARRISON       PTCLDY    60  43  53 S10G18    29.92S
6HR MIN TEMP:  56; 6HR MAX TEMP:  61;

BENTONVILLE    PTCLDY    59  39  47 SW12      29.95S
6HR MIN TEMP:  57; 6HR MAX TEMP:  64;

ROGERS         PTCLDY    60  42  51 SW17      29.94R
6HR MIN TEMP:  59; 6HR MAX TEMP:  63;

SILOAM SPGS    MOCLDY    61  37  41 SW13      29.96S
HIGHFILL       MOCLDY    59  41  51 SW9       29.94R
6HR MIN TEMP:  58; 6HR MAX TEMP:  63;

$$

ARZ004-005-016-290700-
NORTH CENTRAL ARKANSAS

CITY           SKY/WX    TMP DP  RH WIND       PRES   REMARKS
BATESVILLE     MOCLDY    55  39  54 S14G22    29.97F
6HR MIN TEMP:  52; 6HR MAX TEMP:  55;

FLIPPIN        PTCLDY    57  39  51 S6        29.90F
6HR MIN TEMP:  54; 6HR MAX TEMP:  57;

MTN HOME       PTCLDY    54  41  61 S8        29.90F
6HR MIN TEMP:  51; 6HR MAX TEMP:  56;

$$

ARZ040-041-290700-
WEST CENTRAL ARKANSAS

CITY           SKY/WX    TMP DP  RH WIND       PRES   REMARKS
MENA           CLEAR     64  45  48 SW5       30.04S
MOUNT IDA      MOCLDY    65  43  44 SW8       30.00R
6HR MIN TEMP:  64; 6HR MAX TEMP:  69;

$$

ARZ009-017-025-026-028-290700-
NORTHEAST ARKANSAS

CITY           SKY/WX    TMP DP  RH WIND       PRES   REMARKS
CORNING        FAIR      50  39  66 S16       29.97F
JONESBORO      MOCLDY    48  38  68 S10       30.00S
6HR MIN TEMP:  46; 6HR MAX TEMP:  51;

NEWPORT        PTCLDY    51  41  69 S12       30.00F
6HR MIN TEMP:  47; 6HR MAX TEMP:  52;

WALNUT RIDGE   PTCLDY    50  37  62 S15       29.97F
6HR MIN TEMP:  43; 6HR MAX TEMP:  50;

BLYTHEVILLE    MOCLDY    53  36  52 S16       30.01F
6HR MIN TEMP:  46; 6HR MAX TEMP:  53;

$$

ARZ022-023-033-042-044-290700-
CENTRAL ARKANSAS

CITY           SKY/WX    TMP DP  RH WIND       PRES   REMARKS
LITTLE ROCK    PTCLDY    58  40  51 SW16G25   30.02S
6HR MIN TEMP:  52; 6HR MAX TEMP:  58;

N LITTLE ROCK  PTCLDY    56  45  64 SW9G18    30.02S
6HR MIN TEMP:  55; 6HR MAX TEMP:  57;

JACKSONVILLE   CLEAR     53  42  65 S2        30.02S
6HR MIN TEMP:  51; 6HR MAX TEMP:  57;

SEARCY         PTCLDY    46  40  79 SW5       30.04S
6HR MIN TEMP:  46; 6HR MAX TEMP:  54;

HOT SPRINGS    CLEAR     61  42  49 SW7       30.04R
6HR MIN TEMP:  55; 6HR MAX TEMP:  65;

RUSSELLVILLE   PTCLDY    44  39  82 CALM      29.98S
6HR MIN TEMP:  44; 6HR MAX TEMP:  61;

CLINTON        FAIR      37  36  93 CALM      30.02F
$$

ARZ036-290700-
EAST ARKANSAS

CITY           SKY/WX    TMP DP  RH WIND       PRES   REMARKS
WEST MEMPHIS   PTCLDY    53  38  56 S15       30.05F
6HR MIN TEMP:  45; 6HR MAX TEMP:  53;

$$

ARZ050-053-066-070-073-290700-
SOUTHWEST ARKANSAS

CITY           SKY/WX    TMP DP  RH WIND       PRES   REMARKS
ARKADELPHIA    FAIR      47  46  96 CALM      30.07R
6HR MIN TEMP:  45; 6HR MAX TEMP:  63;

CAMDEN         CLEAR     59  39  47 MISG      30.07S
TEXARKANA      CLEAR     60  44  55 SW12      30.06R
6HR MIN TEMP:  60; 6HR MAX TEMP:  70;

EL DORADO      CLEAR     57  41  55 S9        30.09S
6HR MIN TEMP:  57; 6HR MAX TEMP:  65;

DE QUEEN       MOCLDY    49  43  80 E3        30.03R
6HR MIN TEMP:  48; 6HR MAX TEMP:  71;

$$

ARZ056-057-069-290700-
SOUTHEAST ARKANSAS

CITY           SKY/WX    TMP DP  RH WIND       PRES   REMARKS
PINE BLUFF     PTCLDY    59  40  49 S20G25    30.05S
6HR MIN TEMP:  52; 6HR MAX TEMP:  60;

STUTTGART      CLEAR     57  41  54 S15       30.05S
6HR MIN TEMP:  48; 6HR MAX TEMP:  57;

MONTICELLO     LGT RAIN  60  41  49 SW12G20   30.09R
6HR MIN TEMP:  57; 6HR MAX TEMP:  61; 6HR PCP: TRACE;


$$





USA.gov is the U.S. government's official web portal to all federal, state and local government web resources and services.